ITASAT (43786 NORAD) Tracking and Keplerian Element Data

This shows tracking and keplerian element data for the satellite.

Feedback or suggestion? Click here.




ElementValue
Catalog43786
NameITASAT
Epoch Orbit32025
Epoch Day286.70707886
Epoch Year2024
RAAN340.7628
Inclination97.4966
Eccentricity0.0015233
Argument of Perigee314.5007
Mean Anonmoly45.4975
Mean Motion15.07108101
Decay Rate0.00015428
L11 43786U 18099AE 24286.70707886 .00015428 00000+0 10273-2 0 9994
L22 43786 97.4966 340.7628 0015233 314.5007 45.4975 15.07108101320255



Live tracking and technical data element details for ITASAT (NORAD 43786). ITASAT can be tracked NOW for your location showing map with azimuth and elevation plus other details from your city location.







IsCatalogInMostPopularTable: catalog: 43786, numindb: 520
Update: records affected: 1



GetName: 43786 ITASAT

Hit Count: updated at: Thu, 23 Jan 2025 18:22:51 GMT